Regional Weather Roundup
Issued by NWS

Home | Current Version | Previous Version | Graphics & Text | Print | Product List | Glossary On
Versions: 1 2 3 4 5 6 7 8 9 10 11 12 13 14 15 16 17 18 19 20 21 22 23 24 25 26 27 28 29 30 31 32 33 34 35 36 37 38 39 40 41 42 43 44 45 46 47 48 49 50
000
ASUS43 KDTX 191510
RWRMI
MICHIGAN HOURLY REGIONAL WEATHER ROUNDUP
NATIONAL WEATHER SERVICE DETROIT/PONTIAC MI
1100 AM EDT FRI SEP 19 2014

NOTE: "FAIR" INDICATES FEW OR NO CLOUDS BELOW 12,000 FEET WITH NO
SIGNIFICANT WEATHER AND/OR OBSTRUCTION TO VISIBILITY.

MIZ047>049-052>055-059>063-066>070-074>076-081>083-191600-
SOUTHEAST LOWER MICHIGAN

CITY           SKY/WX    TMP DP  RH WIND       PRES   REMARKS
ADRIAN         SUNNY     58  47  66 SE5       30.26F
ALMA           SUNNY     56  48  74 S5        30.25S
ANN ARBOR      SUNNY     58  44  60 CALM      30.25F
BAD AXE        SUNNY     56  49  77 SE8       30.27S
CARO           SUNNY     56  48  76 S7        30.25F
DETROIT CITY   SUNNY     59  47  64 CALM      30.27S
DETROIT        MOSUNNY   58  44  60 CALM      30.26F
FLINT          SUNNY     57  46  66 SE5       30.26F
GROSSE ILE     SUNNY     57  46  67 CALM      30.25S
HILLSDALE      SUNNY     60  52  75 SE5       30.24F
HOWELL         SUNNY     56  45  65 E3        30.25S

CITY           SKY/WX    TMP DP  RH WIND       PRES   REMARKS
JACKSON        SUNNY     59  50  72 SE8       30.25F
LAMBERTVILLE   SUNNY     61  50  67 E5        30.25F
LANSING        SUNNY     57  47  69 SE9       30.25F
LAPEER         FAIR      55  47  76 S7        30.25F
MASON          SUNNY     57  47  70 SE3       30.25F
MONROE         SUNNY     59  46  63 CALM      30.24F
PONTIAC        MOSUNNY   56  44  64 VRB6      30.25F
PORT HOPE        N/A     57  47  69 SE12      30.24F
PORT HURON     SUNNY     55  50  82 SE5       30.26F
TRI CITIES     SUNNY     55  45  68 SE8       30.26F
TROY           SUNNY     57  44  63 CALM      30.27F
SAGINAW HB     SUNNY     55  46  71 S6        30.25F
$$
MIZ043>046-050>051-056>058-064>065-071>073-077>080-191600-
SOUTHWEST LOWER MICHIGAN

CITY           SKY/WX    TMP DP  RH WIND       PRES   REMARKS
BATTLE CREEK   SUNNY     59  51  75 S8        30.24S
BENTON HARBOR  SUNNY     60  53  77 SE12      30.19F
BIG RAPIDS     SUNNY     55  51  85 S9        30.20F
COLDWATER      SUNNY     60  53  77 SE10      30.23F
FREMONT        CLOUDY    52  51  97 SE7       30.20F FOG
HOLLAND        SUNNY     60  54  80 SE14      30.20F
GRAND RAPIDS   MOSUNNY   60  53  77 S15       30.22F
IONIA          FAIR      57  51  79 SE8       30.23S
KALAMAZOO      SUNNY     59  51  75 S8        30.23F
LUDINGTON      PTSUNNY   57  52  82 S7        30.17S
MARSHALL       SUNNY     58  51  77 S7        30.23F
MOUNT PLEASANT SUNNY     54  47  75 SE6       30.23F
MUSKEGON       PTSUNNY   61  52  72 SE13      30.19F
SOUTH HAVEN    SUNNY     62  55  78 S9        30.20S
$$
MIZ016>042-191600-
NORTHERN LOWER MICHIGAN

CITY           SKY/WX    TMP DP  RH WIND       PRES   REMARKS
ALPENA         MOSUNNY   54  43  66 S13       30.22F
BEAVER ISLAND  PTSUNNY   58  50  76 S9G20     30.13S
BELLAIRE       MOSUNNY   58  46  64 S8        30.17F
CADILLAC       SUNNY     55  47  75 S9        30.18F
CHARLEVOIX     MOSUNNY   58  48  71 S9G18     30.17F
FRANKFORT      PTSUNNY   60  50  68 S9        30.14F
GAYLORD        MOSUNNY   52  44  74 S13       30.19F
GRAYLING       MOSUNNY   55  46  70 S7        30.21F
HARBOR SPRINGS MOSUNNY   58  47  66 S6        30.16F
HOUGHTON LAKE  SUNNY     53  44  71 S10       30.22F
MANISTEE       PTSUNNY   57  48  72 SE7       30.16F
OSCODA         SUNNY     55  42  60 S10       30.24F
PELLSTON       MOSUNNY   57  47  69 SE9       30.16F
ROGERS CITY    CLOUDY    54  46  76 S12       30.22S
TRAVERSE CITY  PTSUNNY   59  47  64 S8        30.15F
$$
MIZ007>008-015-191600-
EASTERN UPPER MICHIGAN

CITY           SKY/WX    TMP DP  RH WIND       PRES   REMARKS
KINROSS        CLOUDY    52  46  82 SE14      30.16F
MACKINAC ISLAN CLOUDY    52  45  75 SE14G20   30.16S
NEWBERRY       CLOUDY    53  49  88 S12G23    30.11S
S. S. MARIE    CLOUDY    51  44  77 SE12      30.17S
MUNISING         N/A     61  52  72 S16G24    30.02F
$$
MIZ004>006-011>014-085-191600-
CENTRAL UPPER MICHIGAN

CITY           SKY/WX    TMP DP  RH WIND       PRES   REMARKS
MANISTIQUE     CLOUDY    55  52  89 S15G23    30.09F
ESCANABA       CLOUDY    57  54  88 S15G22    30.06F
MENOMINEE      CLOUDY    59  55  88 SW17G23   30.08S
SAWYER-GWINN   CLOUDY    52  50  93 S17G25    30.02F FOG
$$
MIZ001>003-009>011-084-191600-
WESTERN UPPER MICHIGAN

CITY           SKY/WX    TMP DP  RH WIND       PRES   REMARKS
IRON MOUNTAIN  CLOUDY    53  48  83 S15G24    30.02F
HOUGHTON       MOSUNNY   59  51  75 S13       29.90F
COPPER HARBOR    N/A     57  50  77 SW8G16    29.89F
IRONWOOD       PTSUNNY   61  52  72 SW13G23   29.87S
$$

ABBREVIATIONS USED IN REMARKS
   TC - TEMPERATURE IN CELSIUS
  WCI - WIND CHILL INDEX
   HX - HEAT INDEX
  VSB - VISIBILITY




USA.gov is the U.S. government's official web portal to all federal, state and local government web resources and services.